Regional Weather Roundup
Issued by NWS

Home | Current Version | Previous Version | Graphics & Text | Print | Product List | Glossary On
Versions: 1 2 3 4 5 6 7 8 9 10 11 12 13 14 15 16 17 18 19 20 21 22 23 24 25 26 27 28 29 30 31 32 33 34 35 36 37 38 39 40 41 42 43 44 45 46 47 48 49 50
000
ASUS43 KOAX 190502
RWRNE

WEATHER ROUNDUP FOR NEBRASKA
NATIONAL WEATHER SERVICE OMAHA NE
1100 PM CST SAT FEB 18 2017

NOTES: SATELLITE DATA IS BEING USED TO AUGMENT CLOUD COVER ABOVE
       12000 FEET.
       "FAIR" INDICATES FEW OR NO CLOUDS BELOW 12,000 FEET WITH NO
       SIGNIFICANT WEATHER AND/OR OBSTRUCTIONS TO VISIBILITY.

  * THESE STATIONS DO NOT REPORT WEATHER SUCH AS RAIN...SNOW OR FOG.

NEZ001>004-019>022-054>056-190600-
NEBRASKA PANHANDLE

CITY           SKY/WX    TMP DP  RH WIND       PRES   REMARKS
SCOTTSBLUFF    CLOUDY    45  28  51 E7        29.68R
ALLIANCE       CLOUDY    42  31  64 S13       29.68S
CHADRON        CLOUDY    52  30  43 S23       29.63R
KIMBALL        CLOUDY    47  26  43 S10       29.69F
SIDNEY         CLOUDY    44  26  49 SE10      29.70S
$$

NEZ057>060-069>072-079>082-190600-
SOUTHWEST NEBRASKA

CITY           SKY/WX    TMP DP  RH WIND       PRES   REMARKS
NORTH PLATTE   CLOUDY    40  32  73 E9        29.74F WCI  34
IMPERIAL       PTCLDY    42  31  64 E5        29.72S
LEXINGTON      MOCLDY    38  32  78 CALM      29.76F
MCCOOK         CLOUDY    46  36  68 E7        29.74F
OGALLALA       CLOUDY    46  34  61 NE5       29.72S
$$

NEZ005>010-023>029-035>040-094-190600-
NORTH CENTRAL NEBRASKA

CITY           SKY/WX    TMP DP  RH WIND       PRES   REMARKS
VALENTINE      PTCLDY    45  31  58 S9        29.72F
AINSWORTH      PTCLDY    43  32  65 S12       29.74S
BROKEN BOW     CLOUDY    34  28  79 CALM      29.77R
O`NEILL        MOCLDY    46  36  68 S7        29.78R
ORD            PTCLDY    41  29  62 S3        29.77R
THEDFORD       PTCLDY    45  34  65 CALM      29.75S
$$

NEZ041-046>049-061>064-073>077-083>087-190600-
SOUTH CENTRAL NEBRASKA

CITY           SKY/WX    TMP DP  RH WIND       PRES   REMARKS
GRAND ISLAND   PTCLDY    46  34  62 SE7       29.78S
AURORA         PTCLDY    44  32  61 SE8       29.79R
HASTINGS       PTCLDY    44  34  67 SE5       29.79R
HEBRON         PTCLDY    48  39  71 S3        29.80R
HOLDREGE       PTCLDY    44  36  71 SE7       29.76S
KEARNEY *      PTCLDY    43  30  61 E3        29.78R
YORK           CLOUDY    50  34  53 SE10      29.80R
$$

NEZ011>018-030>034-042>045-190600-
NORTHEAST NEBRASKA

CITY           SKY/WX    TMP DP  RH WIND       PRES   REMARKS
NORFOLK        CLOUDY    43  33  68 SE7       29.79R
ALBION         CLOUDY    42  34  72 CALM      29.79S
BLAIR          CLOUDY    50  34  53 E7        29.81S
FREMONT        PTCLDY    44  35  68 CALM      29.81S
TEKAMAH        CLOUDY    38  33  82 CALM      29.82S
WAYNE          PTCLDY    36  33  87 SW3       29.81R
$$

NEZ050>053-065>068-078-088>093-190600-
SOUTHEAST NEBRASKA

CITY           SKY/WX    TMP DP  RH WIND       PRES   REMARKS
LINCOLN        PTCLDY    43  31  62 CALM      29.82R
OMAHA EPPLEY   CLOUDY    43  33  68 CALM      29.82S
BEATRICE       CLEAR     52  36  54 SE3       29.80S
FALLS CITY     PTCLDY    50  35  56 SE5       29.83R
NEBRASKA CITY  CLOUDY    50  27  39 SE7       29.82S
PLATTSMOUTH    CLOUDY    49  27  41 SE5       29.82S
$$

NEZ044-045-051>053-067-190600-
OMAHA AREA

CITY           SKY/WX    TMP DP  RH WIND       PRES   REMARKS
OMAHA EPPLEY   CLOUDY    43  33  68 CALM      29.82S
BLAIR          CLOUDY    50  34  53 E7        29.81S
FREMONT        PTCLDY    44  35  68 CALM      29.81S
MILLARD        PTCLDY    44  35  70 CALM      29.82R
PLATTSMOUTH    CLOUDY    49  27  41 SE5       29.82S
WAHOO          FAIR      44  34  67 CALM      29.81S
$$



USA.gov is the U.S. government's official web portal to all federal, state and local government web resources and services.